Location: *
(51.1248°S, 108.4023°W)
Time: 19:00:30
(UTC+00:00)

Cosmos 1544 - Pass Details

Date: 24 October 2021
Orbit: 467 x 486 km, 82.5° (Epoch: 29 November)

Event Time Altitude Azimuth Distance (km) Brightness Sun altitude
Exits shadow 08:25:24 50° 126° (SE) 621 3.8 -24.2°
Drops below altitude 10° 08:28:26 10° 163° (SSE) 1,680 6.9 -24.0°
Sets 08:30:34 0° 166° (SSE) 2,572 8.1 -23.8°
